sat.trackr.live / text

‹ back to catalog

STARLINK-35404

NORAD 66336 · 2025-253T

PAYLOAD ACTIVE UNKNOWN

§ Identity

Operator
Country
US
Launch date
2025-11-06
Launch site
AFETR
Launch vehicle
Mass (kg)
RCS (m²)

Purposes: comms

External: N2YO · Heavens-Above · Gunter

§ Orbital elements

Epoch: 2026-05-25T01:11:00.421152Z

Period
94.27 min
Inclination
42.9989°
Eccentricity
0.0001154
Mean motion
15.27596470 rev/d
Perigee alt
482.2 km
Apogee alt
483.8 km
Semi-major
6,861.1 km
B*
3.6424e-4
RAAN
141.1795°
Arg perigee
241.1206°
Mean anomaly
118.9530°
Rev number
3,192

§ Raw data

STARLINK-354041 66336U 25253T   26145.04931043  .00009779  00000+0  36424-3 0  99962 66336  42.9989 141.1795 0001154 241.1206 118.9530 15.27596470 31920

JSON: /api/v1/satellites/66336 · /tle

For live sub-satellite position, see the globe view (requires WebGL).

§ Visibility from observer

Set your observer location to see the next 7 days of passes ≥ 10°. The values pass through the URL so the page stays shareable.

No JS? Fill the form by hand. The geolocation button needs JavaScript.